This is the latest recevied weather packets stored in our database for station/object WA9NNN-10. If no packets are shown the sender has not sent any weather packets the latest 10 day(s).
| Time | Temp. | Humidity | Pressure | Rain* | Wind** | Luminosity | Snow |
|---|---|---|---|---|---|---|---|
| 1787974411 | 22.78° C | 68% | 1019.7 hPa | 0 mm | - | - | - |
| 1787972011 | 23.33° C | 67% | 1019.7 hPa | 0 mm | - | - | - |
| 1787968711 | 23.89° C | 65% | 1019.2 hPa | 0 mm | - | - | - |
| 1787968111 | 24.44° C | 65% | 1019.1 hPa | 0 mm | - | - | - |
| 1787963911 | 25° C | 66% | 1019 hPa | 0 mm | - | - | - |
| 1787963311 | 25.56° C | 66% | 1018.9 hPa | 0 mm | - | - | - |
| 1787962711 | 25.56° C | 66% | 1018.9 hPa | 0 mm | - | - | - |
| 1787959410 | 26.11° C | 64% | 1018.9 hPa | 0 mm | - | - | - |
| 1787959111 | 26.11° C | 64% | 1018.9 hPa | 0 mm | - | - | - |
| 1787958511 | 26.11° C | 63% | 1018.9 hPa | 0 mm | - | - | - |
| 1787954911 | 26.67° C | 58% | 1019 hPa | 0 mm | - | - | - |
| 1787954010 | 26.67° C | 58% | 1019 hPa | 0 mm | - | - | - |
| 1787948911 | 27.78° C | 53% | 1019.3 hPa | 0 mm | - | - | - |
| 1787943210 | 27.78° C | 54% | 1020.2 hPa | 0 mm | - | - | - |
| 1787942911 | 27.22° C | 55% | 1020.1 hPa | 0 mm | - | - | - |
| 1787941411 | 28.89° C | 50% | 1020.2 hPa | 0 mm | - | - | - |
| 1787939611 | 31.11° C | 46% | 1020.4 hPa | 0 mm | - | - | - |
| 1787936611 | 31.11° C | 44% | 1021 hPa | 0 mm | - | - | - |
| 1787936313 | 30.56° C | 44% | 1020.9 hPa | 0 mm | - | - | - |
| 1787936011 | 31.11° C | 44% | 1021.1 hPa | 0 mm | - | - | - |
| 1787935711 | 31.11° C | 44% | 1021.2 hPa | 0 mm | - | - | - |
| 1787935411 | 30.56° C | 45% | 1021.3 hPa | 0 mm | - | - | - |
| 1787933611 | 30.56° C | 47% | 1021.3 hPa | 0 mm | - | - | - |
| 1787933312 | 30° C | 49% | 1021.2 hPa | 0 mm | - | - | - |
| 1787933011 | 29.44° C | 51% | 1021.2 hPa | 0 mm | - | - | - |
* Rain latest hour (hover to see other rain measurements)
** Current wind speed in m/s (hover to see current wind gust speed)